Regional Weather Roundup
Issued by NWS

Home | Current Version | Previous Version | Graphics & Text | Print | Product List | Glossary On
Versions: 1 2 3 4 5 6 7 8 9 10 11 12 13 14 15 16 17 18 19 20 21 22 23 24 25 26 27 28 29 30 31 32 33 34 35 36 37 38 39 40 41 42 43 44 45 46 47 48 49 50
000
ASUS45 KABQ 072201
RWRNM
NEW MEXICO REGIONAL WEATHER ROUNDUP
NATIONAL WEATHER SERVICE ALBUQUERQUE NM
400 PM MDT TUE JUL 07 2015

NOTE: "FAIR" MEANS FEW OR NO CLOUDS BELOW 12,000 FEET AGL WITH NO
       SIGNIFICANT WEATHER OR OBSTRUCTIONS TO VISION.

      THIS PRODUCT IS RELEASED AS TWO VERSIONS.  ONE VERSION NEAR
      THE TOP OF THE HOUR CONTAINING PRELIMINARY DATA FROM ALBUQUERQUE
      AND OTHER STATIONS.  A FINAL VERSION WITH ADDITIONAL DATA IS
      ISSUED ABOUT 10 MINUTES AFTER THE HOUR.

NMZ501-503-504-510>518-072300-
NORTHWEST PLATEAU/NORTHCENTRAL MOUNTAINS

CITY           SKY/WX    TMP DP  RH WIND       PRES   REMARKS
FARMINGTON     MOSUNNY   71  50  47 N16       30.08R
SANTA FE       PTSUNNY   75  53  46 S14       30.17F
TAOS           MOSUNNY   70  46  43 SW3       30.22F

$$
NMZ402-403-502-505>509-072300-
WESTCENTRAL MOUNTAINS/SOUTHWEST MOUNTAINS

CITY           SKY/WX    TMP DP  RH WIND       PRES   REMARKS
GALLUP         MOSUNNY   80  42  25 W18G28    30.14S
SILVER CITY      N/A     84  55  37 SE16      30.09F

$$
NMZ407-409-411-412-072300-
SOUTHERN DESERTS

CITY           SKY/WX    TMP DP  RH WIND       PRES   REMARKS
DEMING         PTSUNNY   85  56  37 NE20G26   30.00F
ALAMOGORDO     MOSUNNY   90  52  27 W9G16     29.98F
T OR C         CLOUDY    78  52  40 NW14G24   30.08S

$$
NMZ519>523-072300-
CENTRAL VALLEYS/CENTRAL HIGHLANDS

CITY           SKY/WX    TMP DP  RH WIND       PRES   REMARKS
ALBUQUERQUE    CLOUDY    79  54  41 VRB3      30.12F
DOUBLE EAGLE   PTSUNNY   70  48  46 W21       30.19R THUNDER
MORIARTY ARPT    N/A     74  53  47 S9        30.19F
CLINES CORNERS PTSUNNY   66  56  70 SE10      30.24F
BELEN          FAIR      80  51  36 S10       30.09F
SOCORRO        NOT AVBL

$$
NMZ524>526-539-540-072300-
SOUTHCENTRAL MOUNTAINS

CITY           SKY/WX    TMP DP  RH WIND       PRES   REMARKS
RUIDOSO        NOT AVBL

$$
NMZ527>531-072300-
NORTHEAST HIGHLANDS/NORTHEAST PLAINS

CITY           SKY/WX    TMP DP  RH WIND       PRES   REMARKS
LAS VEGAS      CLOUDY    62  55  77 SE12      30.25F HAZE
RATON          CLOUDY    64  55  72 CALM      30.21F
CLAYTON        PTSUNNY   72  49  44 VRB6      30.16F HAZE

$$
NMZ532>537-072300-
EASTCENTRAL PLAINS

CITY           SKY/WX    TMP DP  RH WIND       PRES   REMARKS
TUCUMCARI      CLOUDY    74  55  51 E8        30.12F HAZE
CANNON AFB     NOT AVBL
CLOVIS AIRPORT CLOUDY    66  57  72 NE10        N/A

$$
NMZ028-029-538-072300-
SOUTHEAST PLAINS

CITY           SKY/WX    TMP DP  RH WIND       PRES   REMARKS
ROSWELL        PTSUNNY   81  60  48 E13       30.07F
ARTESIA        MOSUNNY   79  63  57 VRB7G15   30.06F
CARLSBAD       PTSUNNY   82  63  52 N12       30.03F
HOBBS          PTSUNNY   75  64  69 N10       30.08F


$$


USA.gov is the U.S. government's official web portal to all federal, state and local government web resources and services.